Regional Weather Roundup
Issued by NWS Upton, NY

Current Version | Previous Version | Text Only | Print | Product List | Glossary On
Versions: 1 2 3 4 5 6 7 8 9 10 11 12 13 14 15 16 17 18 19 20 21 22 23 24 25 26 27
000 ASUS41 KOKX 262009 RWROKX REGIONAL WEATHER ROUNDUP NATIONAL WEATHER SERVICE NEW YORK NY 400 PM EDT WED APR 26 2017 NOTE: "FAIR" INDICATES FEW OR NO CLOUDS BELOW 12,000 FEET WITH NO SIGNIFICANT WEATHER AND/OR OBSTRUCTIONS TO VISIBILITY. NYZ071-072-176-178-NJZ106-104-262100- NEW YORK CITY METRO AREA CITY SKY/WX TMP DP RH WIND PRES REMARKS Central Park CLOUDY 58 57 97 NE7 29.79S FOG Wall St Helipt CLOUDY 59 56 89 NE10 29.77F FOG Bronx Bot Gard N/A 57 54 88 E8 29.77F LaGuardia APRT CLOUDY 60 56 86 NE12G23 29.76F FOG Kennedy INTL LGT RAIN 60 57 89 N9 29.77F Breezy Point N/A 57 N/A N/A N5 N/A Newark/Liberty CLOUDY 60 57 89 NE6 29.76F Teterboro CLOUDY 62 57 83 CALM 29.75F $$ NYZ177-179-078>081-262100- LONG ISLAND NEW YORK CITY SKY/WX TMP DP RH WIND PRES REMARKS Jones Beach N/A 54 N/A N/A S5 N/A Matinecock PT NOT AVBL Farmingdale CLOUDY 61 57 87 E7 29.76S MacArthur/ISP CLOUDY 62 58 86 NE14 29.75S Shirley CLOUDY 60 57 89 N7 29.76F Mt Sinai Harb N/A N/A N/A N/A N1 N/A Westhampton CLOUDY 61 56 83 NE8 29.77F East Hampton CLOUDY 57 55 93 NE3 29.76F Montauk N/A 53 53 100 NE8 29.78F $$ NYZ052-065-067-262100- HUDSON VALLEY CITY SKY/WX TMP DP RH WIND PRES REMARKS White Plains CLOUDY 60 56 86 S5 29.76F Larchmont Harb N/A 54 N/A N/A N6 N/A Croton O-T Hud N/A 63 N/A N/A NE1 N/A Newburgh CLOUDY 61 59 94 NE7 29.79F Montgomery CLOUDY 60 55 83 N8 29.77F Poughkeepsie CLOUDY 59 55 87 NW8 29.76F Albany PTSUNNY 69 57 65 VRB3 29.77F $$ NJZ001-105-106-008-010-013-015-019>022-104-262100- NEW JERSEY CITY SKY/WX TMP DP RH WIND PRES REMARKS Newark/Liberty CLOUDY 60 57 89 NE6 29.76F Teterboro CLOUDY 62 57 83 CALM 29.75F Caldwell CLOUDY 62 56 80 VRB5 29.77F Somerville CLOUDY 65 56 72 N5 29.73F Linden NOT AVBL Sussex CLOUDY 61 55 81 NE8 29.77F Andover N/A 60 54 80 VRB3 29.76F Trenton CLOUDY 64 58 80 VRB3 29.75F Millville PTSUNNY 65 59 81 CALM 29.75S Atlantic City CLOUDY 66 58 75 CALM 29.74F Wrightstown CLOUDY 61 57 88 NE7 29.73F Toms River CLOUDY 63 58 83 NE6 29.76F Belmar CLOUDY 62 56 80 N7 29.77S $$ PAZ047>061-062-071-262100- EASTERN PENNSYLVANIA CITY SKY/WX TMP DP RH WIND PRES REMARKS Philadelphia NOT AVBL Allentown CLOUDY 67 55 65 SE3 29.76F Scranton CLOUDY 73 57 57 NE9 29.74F $$ CTZ002-004>006-009-010-012-RIZ004-006-007-MAZ004-011-015-262100- SOUTHERN NEW ENGLAND IN CT CITY SKY/WX TMP DP RH WIND PRES REMARKS Bradley INTL CLOUDY 61 55 81 N10 29.79F Hartford CLOUDY 61 55 81 N12 29.78F Danbury CLOUDY 60 56 86 E5 29.78F Wtrbury/Oxford CLOUDY 59 52 77 NE10G16 29.79F Bridgeport CLOUDY 65 56 72 NE8 29.76F Meriden CLOUDY 62 55 77 N9 29.78F New Haven CLOUDY 62 56 80 NE12 29.76F Chester CLOUDY 61 57 88 NE8 29.77S Groton CLOUDY 60 58 92 NE8 29.76F FOG Wilimantic CLOUDY 62 57 83 NE9 29.78F IN RI CITY SKY/WX TMP DP RH WIND PRES REMARKS Providence LGT RAIN 60 60 100 NE5 29.79F Block Island LGT RAIN 52 52 100 N5 29.77F FOG Westerly CLOUDY 60 59 96 NE7 29.77F FOG IN MA CITY SKY/WX TMP DP RH WIND PRES REMARKS Boston LGT RAIN 53 53 100 NE6 29.82F VSB 1/4 Worcester FOG 54 53 97 NE7 29.81F VSB 1/4 Westfield CLOUDY 59 55 87 N14 29.80F Provincetown CLOUDY 56 55 97 SE12 29.83S FOG Nantucket FOG 54 53 97 SE20 29.77F VSB 1/4 $$ ANZ330-335-338-340-345-350-353-355-262100- COASTAL MARINE OBSERVATIONS STATION/POSITION TIME SKY/WX TEMP WIND PRES VSBY WAVE AIR SEA DIR/SP/G HT/PER (UTC) (F) (DEG/KT/KT) (MB) (MI) (FT/S) NY HARB ENTRANCE 1850 53 49 310/ 2/ 4 1008.1 7/11 20 S FIRE ISLAND 1950 49 48 60/ 6/ 6 1007.0 9/10 GREAT SOUTH BAY 1930 57 57 100/ 6/ 6 N/A 23 SSW MONTAUK P 1850 49 46 1008.2 8/11 15 E BARNEGAT LI 1930 51 N/A 7/11 HUDSON CANYON 1850 54 51 110/ 2/ 4 1007.4 9/10 KINGS POINT 1948 58 49 90/ 3/ 6 1007.8 EXECUTION ROCKS NOT AVBL CENTRAL LI SOUND 1915 49 70/ 8/ 10 N/A 1 EASTERN LI SOUND NOT AVBL ROBBINS REEF 1948 58 50/ 12/ 13 1008.0 $$ >>>>>>>>>>>>>>>>>>>>>>>>>>>> KEY <<<<<<<<<<<<<<<<<<<<<<<<<<< > < > SKY/WX - Sky Condition/Present Weather < > TMP - Temperature in Fahrenheit < > DP - Dew Point in Fahrenheit < > RH - Relative Humidity in Percent < > WIND - Direction (from) and Speed in MPH < > PRES - Mean Sea Level Pressure (inches of Hg) < > WCI - Wind Chill Index < > VSB - VISIBILITY IN MILES < > HX - HEAT INDEX < > TC - TEMPERATURE IN CELSIUS < > VRB - VARIABLE WIND DIRECTION < > < >>>>>>>>>>>>>>>>>>>>>>>>>>>> KEY <<<<<<<<<<<<<<<<<<<<<<<<<<<

USA.gov is the U.S. government's official web portal to all federal, state and local government web resources and services.